Terminal Aerodrome Forecast
Issued by NWS Sterling, VA

Current Version | Previous Version | Graphics & Text | Print | Product List | Glossary On
Versions: 1 2 3 4 5 6 7 8 9 10 11 12 13 14 15 16 17 18 19 20 21 22 23
000
FTUS41 KLWX 311500 AAA
TAFIAD
TAF AMD
KIAD 311502Z 3115/0118 VRB03KT P6SM FEW060
     FM311600 23007KT P6SM SCT060
     FM010000 VRB03KT P6SM BKN070
     FM011600 15005KT P6SM BKN070=

USA.gov is the U.S. government's official web portal to all federal, state and local government web resources and services.